This demonstration page uses our WeatherBlox Daily Observations layout. Learn more.

40.92945, -100.16068

Hourly Observations for December 10, 2019

Temp ( °F °C ) Dew Point ( °F °C ) Humidity (%) Winds ( mph kmh ) Pressure ( in mb ) Visibility ( mi km ) Precip ( " mm )
12:15 am 00:15 Partly Cloudy 26 -3.3 20 -6.9 76 76 W 10 17 30.18 1022 10 16.0934 0 0
12:35 am 00:35 Clear 27 -3 19 -7 74 74 W 10 17 30.18 1022 10 16.0934 0 0
12:55 am 00:55 Clear 28 -2.5 20 -6.8 73 73 W 12 19 30.17 1022 10 16.0934 0 0
1:15 am 01:15 Clear 28 -2.5 20 -6.7 73 73 W 10 17 30.17 1022 10 16.0934 0 0
1:35 am 01:35 Clear 27 -2.8 20 -6.7 75 75 W 10 17 30.19 1022 10 16.0934 0 0
1:55 am 01:55 Clear 25 -3.8 19 -7.1 78 78 NW 8 13 30.21 1023 10 16.0934 0 0
2:15 am 02:15 Clear 22 -5.6 18 -8 83 83 NNW 8 13 30.23 1024 10 16.0934 0 0
2:35 am 02:35 Clear 23 -4.8 18 -7.7 80 80 NW 8 13 30.24 1024 10 16.0934 0 0
2:55 am 02:55 Clear 21 -5.9 17 -8.1 85 85 NNW 5 7 30.24 1024 10 16.0934 0 0
3:15 am 03:15 Clear 20 -6.5 17 -8.1 89 89 WNW 7 11 30.26 1025 10 16.0934 0 0
3:35 am 03:35 Clear 21 -6.1 18 -7.8 88 88 NNW 8 13 30.26 1025 10 16.0934 0 0
3:55 am 03:55 Partly Cloudy 22 -5.7 18 -7.6 87 87 NNW 7 11 30.27 1025 10 16.0934 0 0
4:15 am 04:15 Clear 20 -6.5 18 -7.9 90 90 NNW 8 13 30.29 1026 10 16.0934 0 0
4:35 am 04:35 Clear 22 -5.6 19 -7.2 89 89 NNW 7 11 30.29 1026 10 16.0934 0 0
4:55 am 04:55 Partly Cloudy 22 -5.7 19 -7.4 88 88 NW 7 11 30.31 1026 10 16.0934 0 0
5:15 am 05:15 Mostly Cloudy 23 -5.2 19 -7.3 85 85 NW 7 11 30.31 1026 10 16.0934 0 0
5:35 am 05:35 Cloudy 23 -4.8 20 -6.8 86 86 N 6 9 30.32 1027 10 16.0934 0 0
5:55 am 05:55 Cloudy 22 -5.3 17 -8.5 78 78 N 14 22 30.34 1027 10 16.0934 0 0
6:15 am 06:15 Cloudy 21 -6 15 -9.5 77 77 N 8 13 30.35 1028 10 16.0934 0 0
6:35 am 06:35 Cloudy 21 -6.2 15 -9.6 77 77 N 9 15 30.36 1028 10 16.0934 0 0
6:55 am 06:55 Cloudy 20 -6.5 15 -9.5 80 80 N 8 13 30.37 1029 10 16.0934 0 0
7:15 am 07:15 Mostly Cloudy 20 -6.9 14 -9.9 79 79 N 7 11 30.39 1029 10 16.0934 0 0
7:35 am 07:35 Mostly Cloudy 19 -7.1 14 -10.1 79 79 N 8 13 30.4 1029 10 16.0934 0 0
7:55 am 07:55 Mostly Cloudy 19 -7.5 13 -10.3 81 81 N 5 7 30.42 1030 10 16.0934 0 0
8:15 am 08:15 Cloudy 18 -8 13 -10.5 82 82 N 3 6 30.43 1030 10 16.0934 0 0
8:35 am 08:35 Cloudy 18 -7.8 13 -10.6 81 81 N 3 6 30.44 1031 10 16.0934 0 0
8:55 am 08:55 Cloudy 18 -7.8 12 -11 78 78 NNE 5 7 30.45 1031 10 16.0934 0 0
9:15 am 09:15 Mostly Cloudy 19 -7.2 12 -10.9 75 75 NNE 7 11 30.44 1031 10 16.0934 0 0
9:35 am 09:35 Partly Cloudy 19 -7.4 12 -11 76 76 NE 9 15 30.45 1031 10 16.0934 0 0
9:55 am 09:55 Partly Cloudy 18 -7.6 12 -11.3 75 75 NNE 8 13 30.47 1032 10 16.0934 0 0
10:15 am 10:15 Mostly Cloudy 19 -7.3 11 -11.4 73 73 NE 5 7 30.47 1032 10 16.0934 0 0
10:35 am 10:35 Mostly Cloudy 19 -7.2 12 -11.2 73 73 N 3 6 30.47 1032 10 16.0934 0 0
10:55 am 10:55 Partly Cloudy 20 -6.7 12 -11.2 71 71 Calm 30.48 1032 10 16.0934 0 0
11:15 am 11:15 Sunny 21 -6.3 13 -10.7 71 71 N 5 7 30.46 1032 10 16.0934 0 0
11:35 am 11:35 Sunny 21 -6 13 -10.6 70 70 Calm 30.47 1032 10 16.0934 0 0
11:55 am 11:55 Sunny 22 -5.6 13 -10.4 69 69 Calm 30.45 1031 10 16.0934 0 0
12:15 pm 12:15 Sunny 22 -5.3 13 -10.3 68 68 N 3 6 30.44 1031 10 16.0934 0 0
12:35 pm 12:35 Sunny 24 -4.7 14 -10 67 67 Calm 30.43 1030 10 16.0934 0 0
12:55 pm 12:55 Sunny 25 -4.1 15 -9.6 66 66 WSW 3 6 30.41 1030 10 16.0934 0 0
1:15 pm 13:15 Sunny 26 -3.5 15 -9.4 64 64 SSE 3 6 30.39 1029 10 16.0934 0 0
1:35 pm 13:35 Sunny 28 -2.5 16 -8.9 62 62 SSW 8 13 30.38 1029 10 16.0934 0 0
1:55 pm 13:55 Sunny 29 -1.8 17 -8.5 61 61 WSW 8 13 30.36 1028 10 16.0934 0 0
2:15 pm 14:15 Sunny 30 -1.3 17 -8.1 60 60 SSW 5 7 30.35 1028 10 16.0934 0 0
2:35 pm 14:35 Sunny 31 -0.3 18 -7.6 58 58 SSW 10 17 30.33 1027 10 16.0934 0 0
2:55 pm 14:55 Sunny 31 -0.5 19 -7.3 60 60 SW 9 15 30.33 1027 10 16.0934 0 0
3:15 pm 15:15 Sunny 31 -0.8 19 -7.3 62 62 SSW 10 17 30.33 1027 10 16.0934 0 0
3:35 pm 15:35 Sunny 30 -1 19 -7.3 63 63 SSW 10 17 30.33 1027 10 16.0934 0 0
3:55 pm 15:55 Sunny 31 -0.7 21 -6.3 66 66 SSW 13 20 30.32 1027 10 16.0934 0 0
4:15 pm 16:15 Sunny 30 -1.1 21 -6.2 69 69 SSW 9 15 30.32 1027 10 16.0934 0 0
4:35 pm 16:35 Partly Cloudy 30 -1.1 21 -6 70 70 SSW 7 11 30.32 1027 10 16.0934 0 0
4:55 pm 16:55 Sunny 29 -1.4 23 -5.2 76 76 SSW 12 19 30.32 1027 10 16.0934 0 0
5:15 pm 17:15 Clear 28 -2.2 23 -5.1 81 81 SSW 8 13 30.34 1027 10 16.0934 0 0
5:35 pm 17:35 Clear 27 -2.6 23 -5.1 83 83 SSW 8 13 30.34 1028 10 16.0934 0 0
5:55 pm 17:55 Clear 26 -3.2 22 -5.4 85 85 S 8 13 30.35 1028 10 16.0934 0 0
6:15 pm 18:15 Clear 26 -3.6 22 -5.5 87 87 S 8 13 30.35 1028 10 16.0934 0 0
6:35 pm 18:35 Clear 25 -4.1 22 -5.7 89 89 S 8 13 30.36 1028 10 16.0934 0 0
6:55 pm 18:55 Clear 25 -3.8 23 -5.2 90 90 S 5 7 30.36 1028 10 16.0934 0 0
7:15 pm 19:15 Clear 25 -3.9 23 -5.1 91 91 SSW 7 11 30.36 1028 10 16.0934 0 0
7:35 pm 19:35 Clear 27 -3 24 -4.4 90 90 SSW 6 9 30.35 1028 10 16.0934 0 0
7:55 pm 19:55 Clear 28 -2.5 25 -3.8 91 91 SSW 10 17 30.34 1028 10 16.0934 0 0
8:15 pm 20:15 Clear 28 -2.1 26 -3.5 90 90 SW 12 19 30.34 1027 10 16.0934 0 0
8:35 pm 20:35 Partly Cloudy 28 -2 26 -3.3 91 91 SW 16 26 30.34 1027 10 16.0934 0 0
8:55 pm 20:55 Cloudy 29 -1.5 26 -3.5 86 86 SW 16 26 30.33 1027 10 16.0934 0 0
9:15 pm 21:15 Cloudy 30 -1.2 25 -3.8 83 83 SW 16 26 30.32 1027 10 16.0934 0 0
9:35 pm 21:35 Cloudy 30 -0.9 25 -3.8 81 81 SW 16 26 30.32 1027 10 16.0934 0 0
9:55 pm 21:55 Cloudy 30 -0.9 25 -4 80 80 SW 13 20 30.32 1027 10 16.0934 0 0
10:15 pm 22:15 Partly Cloudy 30 -1.1 25 -4.1 80 80 SW 15 24 30.31 1026 10 16.0934 0 0
10:35 pm 22:35 Partly Cloudy 30 -1 25 -4.1 80 80 SW 14 22 30.32 1027 10 16.0934 0 0
10:55 pm 22:55 Clear 30 -1.2 24 -4.2 80 80 SW 14 22 30.32 1027 10 16.0934 0 0
11:15 pm 23:15 Clear 30 -1.1 24 -4.3 79 79 WSW 12 19 30.33 1027 10 16.0934 0 0
11:35 pm 23:35 Clear 30 -1.1 24 -4.4 79 79 WSW 13 20 30.33 1027 10 16.0934 0 0
11:55 pm 23:55 Clear 30 -1.2 24 -4.5 79 79 WSW 10 17 30.33 1027 10 16.0934 0 0

Powered by AerisWeather